Wind_Speed
41 40 39 38 37 37 37 38 39 40 41 42 43 45 45 46 46 46 48 46 45 47 48 48 46 47 50 51 52 52 52 53 55 57 60 62 64 66 68 68 68 68 68 69 71 73 75 75 75 74 72 71 70 70 72 75 78 80 82 85 87 91 94 98 101 100 97 96 93 91 86 80 74 71 69 68 72 76 78 81 80 76 73 70 71 70
43 43 41 40 39 38 38 39 39 40 41 42 43 44 45 45 45 46 47 46 46 48 49 48 46 47 50 50 50 51 51 52 55 58 62 64 66 68 69 69 70 71 72 73 75 76 76 76 75 74 73 71 71 71 74 77 81 83 86 89 92 95 97 100 102 99 92 85 81 78 76 74 69 66 66 68 70 76 79 79 76 74 72 69 69 69
44 43 42 41 40 39 39 39 40 41 42 42 42 44 45 46 46 47 48 48 48 49 51 50 46 48 51 51 51 52 52 55 58 61 64 66 67 69 70 71 72 73 75 76 77 77 77 77 76 75 74 74 74 75 77 81 83 86 89 92 96 99 101 101 98 93 84 74 68 65 65 67 67 63 64 68 72 77 80 79 75 73 70 69 68 68
45 44 43 42 41 40 40 40 41 42 44 44 44 46 48 48 48 50 50 51 51 52 54 53 49 52 54 54 55 54 56 59 61 65 67 68 69 70 71 73 74 76 77 78 78 78 79 78 77 77 76 77 78 80 83 85 87 88 91 94 98 101 103 99 92 84 75 65 57 54 55 59 66 66 63 69 75 77 80 79 75 71 69 68 68 69
46 45 44 43 42 42 42 42 43 44 46 47 47 48 50 51 51 52 52 52 53 54 57 55 52 55 56 58 59 57 58 61 63 67 69 70 71 72 73 74 75 76 77 78 78 79 79 78 76 76 77 79 81 84 87 89 90 92 93 95 98 100 100 94 83 73 65 57 49 46 48 52 62 69 67 69 75 77 78 77 72 69 69 69 69 71
47 46 45 44 44 44 44 45 45 46 48 49 49 49 51 53 52 53 53 54 53 55 58 57 55 57 57 59 62 60 61 63 65 68 70 71 72 73 74 75 75 77 78 78 78 79 77 75 74 75 77 79 81 84 87 90 92 94 96 97 98 97 93 85 74 63 57 53 47 42 43 46 55 68 72 70 73 76 77 75 71 68 69 69 69 72
49 48 47 46 46 46 46 46 47 48 49 51 51 51 53 53 53 53 54 54 54 55 58 56 56 58 58 59 62 61 62 65 67 69 70 71 73 74 75 76 77 78 79 78 78 77 76 75 75 75 77 80 82 85 88 90 92 94 96 97 97 93 84 74 65 58 54 51 47 42 40 42 48 60 72 73 73 75 76 75 71 68 68 67 67 70
50 49 48 48 47 47 47 48 49 50 51 52 52 53 54 53 54 55 55 55 55 57 58 55 56 60 60 60 62 62 62 65 68 70 72 73 74 75 76 76 78 80 80 79 78 77 77 76 75 76 79 82 85 87 90 92 94 95 96 96 92 85 75 65 59 54 52 49 47 43 40 40 42 51 66 75 76 75 76 76 71 70 70 67 67 69
51 50 49 49 49 49 49 50 51 52 53 54 54 55 55 55 55 56 57 56 57 60 59 57 58 61 62 62 63 63 63 66 69 71 73 74 75 76 76 77 79 81 81 80 78 78 77 75 75 77 80 83 86 89 92 94 96 97 96 93 86 76 66 60 55 51 49 48 46 44 41 38 38 44 57 70 77 77 75 75 73 73 72 70 71 69
51 50 50 49 49 50 50 51 53 54 55 55 56 56 55 56 57 58 59 58 59 61 59 58 59 62 63 62 63 65 65 66 69 72 73 74 76 77 77 79 81 82 81 80 79 78 76 75 77 79 80 84 88 91 93 95 97 97 94 88 80 68 58 56 53 49 47 48 47 45 43 39 36 39 47 60 73 78 77 75 74 76 75 73 75 70
51 50 50 50 50 52 53 54 55 56 57 57 57 57 57 58 59 60 60 59 60 61 61 61 61 63 65 62 63 66 66 68 71 73 75 76 77 78 78 80 82 82 82 81 79 78 76 76 78 80 81 84 88 91 94 95 95 95 90 82 73 61 53 53 53 49 48 48 48 47 45 41 37 35 39 49 64 75 78 76 74 77 78 75 74 73
52 51 51 51 53 55 56 57 57 57 58 58 58 58 59 59 60 62 62 61 62 63 65 65 63 65 67 64 65 66 66 70 74 75 77 77 77 78 79 81 83 83 83 81 80 78 77 78 79 80 82 84 88 91 93 94 94 92 86 76 67 57 50 51 52 51 50 49 47 47 47 44 41 35 34 41 54 69 78 79 76 77 79 77 73 68
55 54 52 52 53 55 57 58 58 58 58 58 59 59 60 61 61 63 64 64 65 66 67 66 65 66 66 65 66 66 66 70 74 76 77 77 78 79 80 82 83 83 82 81 80 78 78 80 81 82 83 86 89 91 92 93 92 89 81 71 64 55 50 51 52 51 52 51 46 45 46 46 44 39 34 35 45 60 74 80 78 77 78 79 74 62
59 57 54 54 55 56 58 59 59 59 59 59 59 59 61 61 61 63 64 65 66 65 66 66 65 66 66 66 66 65 67 71 74 76 77 77 79 80 81 83 84 83 82 80 79 78 79 81 82 83 85 88 90 91 91 91 88 84 76 67 62 55 50 52 53 49 50 52 47 43 43 44 45 43 37 33 38 51 67 79 80 78 79 79 78 65
62 60 57 57 58 59 60 61 61 60 60 61 59 60 61 60 61 63 64 65 65 64 66 65 65 66 64 66 67 66 68 72 75 77 77 77 79 81 83 84 84 83 81 79 79 79 81 82 83 85 87 90 93 92 91 88 85 81 73 65 60 54 51 52 54 50 47 49 46 41 39 40 42 44 41 35 33 44 59 75 81 79 80 80 80 73
64 62 60 60 61 62 62 62 62 62 61 61 60 61 61 60 61 64 64 64 63 64 67 65 64 65 64 65 68 67 69 72 76 76 76 77 79 81 84 84 83 82 80 79 79 80 82 83 84 87 90 93 95 94 91 85 81 77 71 63 58 54 51 52 54 51 46 44 44 42 39 39 40 42 42 38 33 39 51 68 80 80 82 82 80 76
65 63 63 63 64 64 65 65 65 63 62 62 62 62 62 61 62 64 64 63 62 64 68 65 63 64 63 65 68 68 69 73 76 76 76 78 81 82 83 83 81 80 78 78 80 82 83 84 85 88 91 94 96 94 89 81 74 71 68 63 58 54 52 52 53 53 48 43 43 44 44 41 41 41 41 40 34 35 45 61 75 79 82 84 80 76
65 64 65 66 66 66 67 68 68 65 63 63 64 64 63 62 63 64 64 63 62 65 68 65 64 64 63 65 69 69 71 75 75 74 76 78 80 81 81 80 79 78 77 77 79 81 83 84 86 88 90 93 96 94 88 78 68 64 64 63 59 56 55 53 52 53 51 46 44 45 46 44 43 42 41 40 37 34 40 54 69 76 81 85 82 77
65 66 66 67 68 69 69 71 70 68 65 64 64 64 63 63 63 63 64 63 63 65 67 66 65 65 63 65 68 69 72 76 75 74 76 78 79 80 80 79 78 77 75 75 77 80 81 82 85 87 89 92 94 93 86 74 63 60 62 61 59 58 58 55 53 52 51 50 46 43 44 44 44 43 41 39 38 35 37 48 61 72 79 85 84 79
66 69 69 68 70 71 72 73 71 69 67 64 64 64 64 63 62 63 63 63 63 65 67 67 67 67 65 64 66 68 72 75 76 76 76 77 78 79 79 78 77 75 74 75 78 80 81 82 85 87 89 92 94 92 84 71 60 58 60 60 59 58 57 56 54 52 51 50 48 45 43 43 43 44 40 39 39 37 36 43 56 67 76 84 84 80
67 71 72 71 71 72 74 74 71 69 68 65 64 65 65 64 63 62 62 62 63 65 66 68 69 69 67 64 64 68 72 75 76 76 76 77 78 79 78 77 75 74 74 76 79 80 81 83 85 87 90 93 94 90 81 67 58 59 60 59 59 58 57 56 54 52 51 50 49 47 45 42 41 42 40 38 38 37 36 40 52 64 73 82 85 81
69 71 73 73 73 73 75 74 71 69 68 67 66 66 66 64 62 61 61 61 63 65 66 67 71 71 66 62 64 70 74 75 75 76 76 77 78 78 77 75 74 73 74 77 79 80 82 84 87 89 92 94 93 89 79 66 59 62 62 60 61 61 60 59 56 53 50 49 49 48 47 44 41 40 40 37 37 37 36 38 48 61 71 80 85 83
69 71 73 73 73 74 75 73 71 70 69 68 68 67 66 64 61 59 61 62 63 67 67 67 71 71 64 61 67 71 72 74 75 76 77 77 77 77 76 74 72 73 75 78 79 80 82 85 87 90 93 95 92 85 74 65 61 62 63 62 63 64 64 63 61 57 52 49 49 48 49 47 42 40 40 38 37 37 36 37 44 58 70 78 85 86
69 70 72 72 73 75 75 73 71 69 68 68 69 68 66 63 60 59 61 63 65 67 67 68 70 69 63 64 69 70 71 73 74 75 76 76 76 77 75 73 71 73 76 78 79 80 82 85 87 91 94 94 90 79 69 64 61 61 62 65 66 67 68 65 62 60 56 52 49 48 49 48 45 42 41 39 37 37 36 36 41 54 68 77 85 88
69 70 70 72 73 75 74 72 69 68 67 68 69 68 65 61 59 60 62 65 67 65 65 70 70 66 64 67 69 70 71 72 73 74 74 75 76 76 75 72 71 73 77 78 79 80 82 84 87 91 94 94 86 74 67 65 61 60 65 69 69 70 72 68 61 57 55 52 49 47 47 48 47 44 42 40 39 38 37 36 38 48 64 76 84 90
68 69 69 71 73 74 72 69 69 68 67 68 69 67 64 59 58 61 64 66 66 64 65 69 70 64 64 68 68 70 73 72 72 73 73 74 76 75 74 72 72 75 78 79 79 81 83 85 87 91 94 94 84 72 69 69 63 62 67 71 71 72 73 69 60 54 52 50 48 45 45 47 48 47 44 41 40 39 39 37 37 43 58 73 83 91
68 69 69 72 74 74 70 68 68 68 67 68 68 66 62 59 60 63 66 66 65 66 66 65 67 66 63 64 67 70 71 71 71 72 72 73 74 73 72 71 72 76 78 78 79 81 84 85 88 90 93 92 82 70 69 72 69 68 71 71 71 73 73 68 59 53 50 48 47 44 43 44 47 48 47 43 41 41 41 39 38 41 52 68 81 90
70 69 71 73 74 73 70 68 68 68 67 67 66 64 61 60 62 66 67 64 64 69 66 60 64 69 64 63 67 69 69 70 70 71 71 73 73 72 71 71 73 76 77 77 79 81 84 86 88 90 92 91 80 69 69 73 72 72 74 72 71 72 72 67 59 51 48 46 45 44 43 43 45 47 47 45 43 42 42 42 40 40 48 63 78 88
72 72 73 75 75 73 71 69 69 68 66 65 64 63 61 61 64 65 64 63 65 69 65 59 63 67 64 64 67 68 69 69 69 70 71 71 72 71 70 70 73 77 78 78 79 81 84 86 88 91 92 90 80 69 69 73 73 73 74 70 69 70 69 65 58 50 46 43 43 44 43 44 44 45 47 46 45 44 44 45 43 41 46 59 74 86
74 74 74 75 74 72 71 70 69 67 65 64 63 61 60 62 63 64 64 63 65 66 63 62 64 63 62 64 66 66 68 69 70 70 70 70 71 70 69 70 73 77 78 78 79 82 84 86 88 91 92 90 79 69 70 73 74 75 73 67 67 67 64 61 57 49 44 41 42 44 44 45 46 46 46 47 47 48 46 47 46 43 45 56 71 82
74 74 74 73 72 72 71 70 68 65 63 64 63 60 59 59 60 64 65 64 64 63 61 63 65 62 61 64 65 65 67 68 69 69 68 69 70 70 69 71 74 76 77 78 80 82 84 86 88 90 92 90 79 69 70 72 74 77 73 67 67 65 61 59 56 51 46 42 42 43 44 46 48 48 47 46 47 49 48 48 48 44 43 52 67 78
74 75 74 73 73 71 70 68 65 62 63 66 62 57 57 57 59 63 63 63 65 63 61 62 63 62 62 63 64 65 66 67 68 68 67 68 69 69 69 72 74 75 76 79 81 82 84 86 88 91 92 89 78 70 71 73 74 75 71 66 67 65 60 57 54 52 49 46 44 44 43 43 46 48 49 48 47 49 50 48 49 46 42 49 63 75
75 75 74 72 72 70 68 66 62 62 66 66 59 54 56 58 59 61 61 61 63 62 61 61 61 61 62 63 63 64 66 67 67 67 67 68 68 68 69 71 74 75 76 79 81 83 84 86 88 91 91 87 78 72 72 74 74 74 71 68 69 66 60 56 54 52 50 48 47 45 43 41 42 44 46 48 47 49 51 48 48 47 42 48 63 74
74 75 74 71 70 69 66 63 62 64 66 62 55 54 57 58 58 59 59 59 59 59 59 60 60 60 61 61 62 64 64 66 66 66 66 67 68 68 68 71 73 75 76 79 80 82 84 85 87 90 89 84 77 72 72 74 73 72 70 70 70 66 61 57 55 54 52 49 47 45 41 40 39 39 40 43 46 49 50 47 46 46 43 48 64 74
74 75 73 70 69 68 64 61 63 64 62 58 57 56 56 57 58 58 56 55 56 57 58 58 58 59 60 60 61 63 63 64 64 64 65 65 66 68 69 71 73 75 76 78 80 81 82 84 87 88 87 82 75 71 71 73 71 68 67 70 70 66 62 58 55 53 51 48 46 43 38 35 35 35 35 39 43 47 47 45 45 44 43 50 64 73
75 74 72 70 68 65 62 61 63 63 59 57 58 57 55 56 58 56 52 51 53 55 56 57 58 57 58 60 61 62 63 63 63 63 64 64 65 67 70 71 73 74 76 78 79 80 81 83 86 88 86 81 74 71 71 73 72 68 66 68 69 68 65 61 55 52 49 46 45 42 35 30 29 29 31 35 40 43 43 43 43 42 43 52 65 72
74 72 71 68 64 62 63 62 62 62 60 57 57 57 56 56 56 54 52 50 50 52 54 55 56 57 58 60 61 62 62 62 62 63 63 63 64 66 69 71 73 74 76 77 79 80 81 83 85 86 84 78 72 70 71 72 72 68 65 65 67 69 69 63 55 51 47 43 42 41 34 28 24 23 27 32 37 39 40 40 41 40 42 53 65 70
71 70 67 64 62 62 63 63 61 61 60 57 56 56 55 54 54 54 52 49 47 50 52 53 55 57 58 60 62 62 62 61 61 61 62 62 63 65 68 71 72 74 75 77 78 78 78 81 83 84 82 75 69 68 69 71 71 68 65 65 67 69 69 63 57 52 47 41 39 38 33 27 21 20 24 29 33 36 36 37 37 38 43 54 64 68
68 66 63 62 61 61 62 62 60 59 60 60 56 53 53 54 53 54 52 48 45 48 51 51 54 56 58 60 61 62 62 61 60 59 59 60 61 64 67 69 70 72 73 74 76 76 77 79 81 82 79 72 67 65 66 68 70 68 64 63 65 66 66 62 56 52 47 40 36 34 31 25 20 19 22 26 29 31 32 33 34 37 44 55 62 66
64 62 60 60 59 60 61 61 58 57 60 60 55 52 53 53 52 52 53 49 46 47 48 50 53 56 58 59 60 61 61 61 60 59 59 59 60 63 66 68 69 71 72 73 74 74 75 76 79 80 78 72 65 63 64 65 67 66 64 62 63 64 63 58 53 49 45 39 34 31 28 24 20 19 21 23 25 27 28 30 32 37 46 55 59 64
59 58 58 58 58 59 59 58 57 57 58 56 53 52 52 52 51 53 53 50 48 47 47 49 53 55 56 58 59 59 59 60 60 59 59 59 60 61 64 66 69 71 72 73 74 74 74 74 76 78 77 71 65 62 62 63 64 64 62 60 60 61 59 56 51 47 43 39 33 28 25 22 20 19 20 20 22 23 24 25 29 38 47 52 56 62
56 56 56 56 57 57 56 58 60 56 51 51 54 53 51 52 53 53 51 49 48 49 50 51 53 55 56 57 58 57 57 57 58 59 59 59 60 61 63 65 67 69 71 72 74 74 74 74 75 77 75 69 63 60 61 62 63 63 61 59 57 57 55 53 50 45 41 38 32 26 22 20 18 17 18 19 19 20 20 21 27 37 44 47 51 59
53 54 54 53 54 56 56 58 59 54 49 50 54 53 53 54 54 52 49 49 49 51 52 53 54 55 56 56 56 56 56 56 57 57 58 59 60 62 63 65 67 68 70 71 73 73 74 74 74 75 75 69 62 58 59 59 60 61 61 59 57 55 52 50 48 44 40 37 32 25 20 17 16 16 17 17 16 15 17 21 28 36 41 43 48 57
51 51 52 52 53 56 57 56 54 53 53 53 52 52 55 55 52 50 50 50 51 51 53 54 55 55 56 55 55 55 55 55 56 57 58 59 60 61 63 65 67 68 70 71 72 73 73 73 73 73 73 69 61 57 57 58 57 58 59 58 57 54 50 46 45 42 38 35 32 26 20 16 14 14 13 13 12 13 17 23 28 34 37 40 46 56
50 50 53 54 54 55 55 53 51 52 53 54 53 53 54 53 51 50 51 52 52 52 53 54 55 55 55 55 54 54 54 54 55 56 57 58 59 61 63 65 67 68 70 71 72 72 72 72 72 72 71 68 61 55 54 55 55 55 57 57 56 55 51 45 41 40 36 31 28 25 19 14 11 10 9 9 11 15 19 23 27 30 31 36 45 54
53 54 55 54 54 53 52 51 51 51 52 54 54 53 52 51 51 51 52 53 53 53 53 54 55 55 54 54 53 53 53 54 54 56 57 57 59 60 62 64 66 68 70 70 71 72 71 71 71 71 70 67 59 53 52 52 52 53 54 55 55 55 53 47 40 37 34 30 24 21 17 12 8 6 7 9 12 16 20 24 28 29 30 35 43 50
58 57 55 54 53 53 52 51 51 52 53 54 54 53 51 51 51 52 53 53 53 53 54 54 55 55 54 53 52 52 53 53 54 55 56 57 59 60 62 64 66 67 69 70 71 71 71 70 70 70 70 66 59 52 49 49 50 51 52 54 55 55 55 50 41 34 32 29 22 17 14 9 5 4 6 9 12 15 19 23 27 28 30 35 41 47
61 58 56 54 53 52 52 53 52 52 53 54 54 53 51 51 51 52 53 53 53 53 54 54 54 54 53 52 51 51 52 53 53 54 56 57 59 61 62 64 65 67 68 69 70 71 70 69 70 70 69 66 59 51 47 47 48 49 50 52 53 54 55 52 44 35 30 28 24 18 13 9 6 4 4 7 10 14 18 23 26 27 30 34 40 44
61 58 55 53 52 52 54 54 53 53 53 53 53 53 52 51 51 52 52 52 53 53 53 54 54 53 51 50 50 50 51 52 53 54 56 58 60 61 63 64 65 67 68 68 69 70 69 69 69 69 68 66 60 52 47 46 46 47 48 49 51 53 53 52 46 36 29 26 24 21 16 12 9 7 6 6 8 12 18 23 25 26 29 34 38 42
59 56 53 52 54 55 54 53 54 55 53 52 52 53 52 50 51 52 52 52 52 52 53 53 52 51 49 49 48 49 50 52 53 55 57 59 60 62 63 64 65 66 67 68 68 68 68 68 68 69 67 65 61 53 47 44 44 45 45 46 49 52 52 51 47 38 29 25 23 22 19 16 13 11 9 7 8 12 17 22 23 25 29 34 38 41
57 55 54 55 56 55 53 54 54 54 53 52 52 52 51 50 51 51 51 51 52 52 52 51 49 48 47 47 47 48 50 52 53 55 58 60 61 62 63 65 66 66 67 67 67 66 66 66 67 67 66 64 60 54 46 43 42 43 43 44 46 50 51 50 48 40 31 25 22 21 19 17 15 13 11 8 9 12 15 19 22 25 30 36 39 42
Wind_Direction
331 330 330 328 326 325 324 322 320 318 316 315 314 313 314 314 313 312 310 312 312 310 310 311 312 311 309 309 311 310 309 309 309 310 312 313 315 317 317 317 318 319 319 319 318 317 316 314 312 310 307 306 304 304 305 307 308 309 310 310 310 309 306 299 294 293 293 291 290 287 284 280 275 270 263 256 250 246 244 246 249 249 246 243 241 239
330 331 331 329 327 325 324 324 323 322 321 319 318 317 316 314 313 311 310 311 311 310 309 309 311 309 308 309 309 309 309 309 310 312 313 314 316 316 316 317 318 319 319 319 318 317 315 313 312 309 307 305 304 305 306 308 310 311 312 312 312 311 306 300 297 298 297 293 289 285 281 276 272 264 256 250 246 244 242 242 247 247 242 239 238 238
329 329 330 330 328 326 325 323 321 321 321 320 320 319 316 314 314 312 311 311 310 310 309 309 311 309 309 310 309 310 310 311 313 313 314 315 316 316 317 318 318 319 319 318 318 316 315 313 311 308 306 305 305 306 308 310 312 313 313 313 312 310 306 303 302 302 300 296 290 283 276 270 266 259 249 245 242 241 240 239 242 244 241 237 235 234
326 326 327 327 327 325 324 321 320 319 319 318 319 318 316 315 315 313 313 313 312 311 310 311 314 311 311 311 310 311 312 313 314 314 315 316 316 316 317 318 319 319 318 318 317 315 314 312 310 309 308 308 309 311 312 313 313 314 314 314 312 310 307 306 306 305 302 298 290 281 272 263 259 254 244 239 239 239 238 237 238 241 240 236 234 232
322 323 323 323 324 324 322 320 319 319 318 317 318 318 316 315 316 315 315 314 313 312 311 313 314 311 312 311 310 313 314 314 316 315 314 315 315 317 318 318 319 318 317 316 315 314 313 312 310 309 309 310 312 313 313 314 314 315 315 314 312 309 308 309 309 307 305 302 294 281 271 260 254 251 244 237 237 238 237 236 234 236 238 236 233 232
320 319 319 319 320 321 321 320 320 319 318 317 319 318 315 315 316 315 315 314 313 312 312 313 313 311 313 312 311 314 315 315 316 314 314 315 316 317 318 318 317 316 315 315 314 313 312 310 308 308 308 309 311 313 313 314 315 316 315 314 312 310 310 311 310 310 309 306 300 286 274 264 253 248 244 237 234 235 236 235 231 231 235 236 234 232
319 317 317 317 317 318 319 320 320 320 318 318 319 317 315 316 315 315 315 313 314 312 312 314 313 312 313 313 314 316 315 315 315 313 314 315 316 317 317 317 316 315 315 315 314 313 311 309 308 308 309 310 312 313 314 315 315 315 315 313 312 312 312 311 310 311 311 309 304 294 279 269 257 246 242 239 235 233 234 233 229 226 227 231 232 231
318 316 316 316 316 317 318 319 320 319 318 317 318 316 315 315 315 315 314 314 314 313 313 314 312 312 314 314 314 315 315 315 314 313 314 314 316 317 317 316 315 314 314 314 313 312 311 310 309 310 311 312 313 314 315 316 316 316 314 313 313 313 313 310 309 312 313 312 310 302 289 275 263 249 242 239 236 233 232 231 227 223 222 222 224 227
318 316 316 316 316 316 316 318 318 318 317 317 317 316 315 315 314 315 314 314 314 313 314 315 313 313 314 315 314 313 315 315 313 313 314 315 317 317 316 315 314 314 314 314 313 313 312 310 310 310 312 313 315 316 317 317 317 315 314 313 313 313 311 307 308 311 312 314 315 311 301 286 271 257 245 239 236 233 231 231 226 221 220 216 217 223
317 317 317 317 315 314 315 316 317 317 317 317 316 315 315 314 314 314 314 314 313 313 314 314 313 313 313 315 315 314 317 316 314 314 314 316 317 317 316 314 313 313 313 313 313 313 311 310 310 311 313 315 317 318 318 318 316 315 313 313 313 313 308 303 305 309 309 311 315 316 312 300 283 267 253 242 237 233 229 230 227 221 220 216 213 221
316 316 317 316 315 314 314 314 315 316 316 317 316 315 315 314 314 314 313 313 312 312 313 312 313 312 312 315 315 315 318 317 314 314 314 317 317 316 315 313 313 313 313 314 314 312 311 310 311 312 315 317 318 319 318 317 315 314 313 312 313 311 304 300 302 305 305 306 309 312 313 310 300 283 265 248 239 234 229 228 229 222 219 218 213 218
315 316 317 317 316 315 315 314 315 315 316 316 316 316 314 313 313 313 312 312 312 312 312 312 313 312 314 316 315 316 318 315 314 314 315 317 316 315 314 313 313 313 313 314 314 312 311 311 312 314 316 318 319 319 318 317 315 313 312 312 312 309 301 297 300 302 302 303 305 307 308 310 310 300 281 259 243 236 230 226 228 224 219 218 214 213
313 314 316 318 317 318 318 317 315 315 315 315 316 316 314 313 313 313 312 312 312 312 311 312 312 313 315 316 315 318 317 314 313 312 314 316 315 314 313 312 313 313 314 314 313 312 311 312 314 315 317 319 319 320 319 318 316 313 312 312 312 309 301 295 297 299 298 300 304 304 304 306 309 309 297 273 250 239 232 226 226 225 219 216 214 209
310 311 314 315 316 318 320 319 317 316 315 315 316 315 314 314 314 312 312 311 311 311 310 311 312 313 315 315 316 318 316 313 312 312 314 315 313 313 313 312 312 313 314 314 312 312 312 314 315 317 319 320 320 321 320 319 316 313 311 311 310 308 301 296 297 298 295 297 302 302 301 301 303 308 307 289 260 244 235 228 226 224 219 216 213 210
310 310 312 313 314 317 319 319 319 317 316 316 316 314 313 314 312 311 311 310 310 309 308 311 313 313 315 316 317 317 314 312 312 313 314 314 313 313 313 312 313 314 315 314 312 313 314 316 317 318 320 321 322 323 322 319 316 313 311 309 308 306 301 297 298 299 295 294 298 300 299 298 298 302 307 302 273 250 238 231 227 223 219 216 213 212
310 310 310 310 312 315 317 319 318 316 315 315 314 312 312 313 311 310 310 309 309 308 308 310 312 313 315 317 317 316 313 311 311 313 314 314 313 313 312 313 314 315 315 314 313 314 315 317 318 321 322 323 323 324 322 319 315 312 310 307 306 306 303 298 297 299 295 292 294 296 297 296 294 297 302 306 289 259 243 234 229 224 219 217 214 213
310 309 308 309 310 313 316 317 318 317 314 314 313 312 312 312 310 310 309 309 308 307 308 310 312 314 317 318 317 315 313 311 312 314 314 314 313 313 313 313 314 315 315 314 315 316 317 319 320 322 323 323 324 324 322 319 314 310 309 307 306 307 305 300 297 297 295 290 289 291 294 293 292 294 297 303 298 272 250 237 231 225 219 217 215 212
311 309 307 308 310 312 314 316 317 316 314 313 313 312 312 311 311 309 308 308 307 306 308 310 313 315 318 319 316 314 312 311 312 313 313 313 312 312 312 313 314 315 315 314 315 317 318 319 321 322 323 324 324 323 321 318 314 311 309 307 307 307 306 303 297 295 294 291 288 288 289 290 289 291 293 298 300 284 258 242 233 226 219 217 215 211
310 308 307 308 309 311 313 315 317 316 314 313 312 312 311 310 310 308 307 307 307 306 308 311 313 316 319 319 316 313 311 310 312 313 312 312 311 311 312 313 314 314 313 312 314 316 317 318 319 321 323 324 324 323 321 318 315 313 311 309 308 307 306 304 298 293 292 291 290 288 286 287 287 288 290 293 297 291 267 246 236 228 220 217 216 212
309 309 308 308 309 312 314 315 316 315 314 313 312 311 310 310 309 307 306 306 306 307 308 311 314 316 319 320 315 311 309 310 311 312 312 312 311 312 313 313 314 313 312 313 315 317 318 319 320 322 324 325 325 324 321 318 316 315 313 310 309 307 305 303 299 293 291 289 289 289 288 287 285 283 286 289 293 294 277 251 238 229 221 217 216 213
307 309 309 309 311 313 314 315 315 314 313 312 311 310 309 308 307 305 305 306 307 307 308 312 315 317 319 319 313 308 308 310 311 311 312 311 311 312 313 314 314 312 312 315 317 318 319 320 322 324 326 326 326 324 322 319 317 317 315 310 307 306 304 303 300 294 290 288 287 287 288 287 284 280 281 285 287 291 284 259 240 230 222 217 215 213
307 309 310 311 313 313 313 314 314 313 312 310 309 308 308 307 306 305 305 306 306 306 309 311 313 316 321 318 311 308 309 310 310 311 312 312 312 313 313 314 313 313 315 318 319 319 320 322 324 326 327 327 327 325 321 320 319 318 315 310 307 306 304 301 301 297 290 287 284 284 285 286 284 279 279 282 284 286 286 268 244 230 222 217 213 213
306 308 309 311 312 312 312 313 313 312 310 309 308 307 307 306 305 305 304 306 306 306 310 310 310 317 322 314 308 309 310 310 311 312 312 313 313 313 314 314 314 315 317 319 320 320 322 323 326 327 328 328 327 324 320 320 322 320 317 315 313 312 308 302 298 296 292 287 283 281 281 282 281 278 276 279 281 282 283 274 251 232 223 217 212 211
305 308 309 310 310 310 310 310 310 310 309 308 308 306 306 305 304 304 304 305 305 308 311 307 309 320 320 310 308 310 310 310 311 312 312 313 313 313 314 314 314 316 318 319 320 321 323 325 327 328 328 328 328 323 319 321 322 321 320 320 320 320 317 309 299 293 290 286 282 279 277 277 277 275 273 274 277 278 279 276 259 237 224 218 213 210
304 307 308 307 307 306 306 306 306 307 307 306 306 304 304 303 302 304 304 302 305 311 310 305 310 320 315 309 311 311 309 311 312 312 313 313 313 313 314 314 315 317 319 320 321 322 324 326 328 329 328 328 328 323 320 322 322 322 324 324 322 321 321 317 304 293 288 283 279 277 274 272 271 270 269 269 271 274 276 275 265 243 226 218 214 210
302 306 305 304 303 302 303 303 303 305 305 304 303 302 302 301 301 302 301 302 307 309 306 307 312 315 311 311 312 310 310 312 312 313 314 313 313 313 314 315 317 319 320 321 322 324 326 328 329 329 328 329 328 324 323 324 322 324 326 324 323 323 322 319 307 295 290 284 277 275 271 267 265 265 264 264 266 270 272 272 269 251 230 219 215 212
301 303 303 302 301 300 300 300 301 303 303 302 301 300 300 300 301 301 301 305 308 304 306 313 312 309 312 313 310 309 311 312 313 313 313 312 312 313 314 315 317 319 320 322 323 325 327 328 329 330 329 330 329 325 325 327 324 325 328 326 325 326 324 321 310 295 290 288 281 275 270 265 262 261 261 260 261 265 267 267 267 255 234 221 215 213
299 301 301 300 299 299 300 299 301 302 302 302 300 298 298 299 301 303 304 307 305 301 308 314 308 307 313 313 309 310 311 312 313 313 312 312 312 313 314 315 316 319 321 322 324 326 327 329 330 331 330 331 329 326 327 328 326 327 328 327 328 328 326 324 317 299 288 287 285 280 273 267 262 259 259 258 258 260 262 262 262 256 239 223 216 213
297 298 298 297 297 299 299 299 301 301 301 300 298 297 298 300 303 304 304 305 302 302 309 311 306 308 313 311 310 311 311 312 313 312 312 312 312 313 314 314 317 320 321 323 326 327 328 329 331 331 331 332 330 326 328 330 328 328 329 329 330 330 328 327 324 309 293 286 286 283 276 269 263 259 257 257 256 256 258 258 257 255 243 225 216 213
295 295 295 295 297 298 298 299 300 299 299 298 296 295 298 304 305 304 303 303 302 304 308 308 306 310 312 310 310 311 311 312 312 312 312 312 312 313 313 314 318 320 322 325 327 328 329 330 332 332 332 332 330 328 330 331 330 329 330 331 332 331 329 328 328 320 306 292 286 283 278 270 263 258 255 254 253 253 253 253 251 252 246 229 217 213
293 293 294 295 296 297 298 299 298 297 297 296 295 297 301 305 304 302 303 304 303 304 307 306 307 310 310 309 310 312 311 311 311 312 312 311 312 312 312 315 320 322 324 325 327 329 330 331 332 333 332 332 331 329 331 333 332 330 331 333 333 332 329 328 327 323 316 305 294 287 281 271 262 257 253 250 249 249 249 249 246 247 246 231 218 212
293 294 296 296 296 297 298 297 296 295 294 294 297 300 302 303 302 301 303 303 302 304 306 305 307 309 310 310 311 311 310 311 312 311 311 311 312 312 314 318 322 323 324 326 328 330 331 331 333 333 333 333 332 330 332 334 333 330 331 334 334 331 329 328 326 323 318 311 303 295 289 278 265 257 253 249 246 245 244 243 240 241 243 231 218 212
294 295 296 296 296 297 296 294 294 292 292 295 300 300 300 302 302 302 302 301 302 304 305 305 308 309 309 310 311 311 310 311 312 311 311 311 312 313 316 320 322 323 325 328 330 331 332 332 333 334 334 333 332 331 333 334 333 332 332 334 334 332 329 327 327 325 319 313 308 300 293 285 272 261 255 249 245 242 239 237 235 237 239 227 216 211
294 295 296 297 296 296 295 293 291 290 293 297 299 298 300 303 302 300 300 300 301 303 303 305 308 309 308 309 310 310 311 311 311 311 310 311 312 314 317 319 321 323 326 328 330 331 332 333 333 334 334 333 332 332 332 334 334 334 333 333 335 333 330 327 326 326 323 319 315 307 296 286 275 266 258 249 243 237 233 230 230 234 236 225 214 210
295 295 296 297 296 294 293 292 291 292 295 297 297 299 303 302 299 297 299 300 301 302 303 305 307 307 307 308 310 311 311 312 311 310 309 311 313 314 316 319 322 324 326 328 330 332 333 333 333 334 334 333 332 331 332 333 334 334 333 333 335 335 332 328 326 327 326 324 322 315 302 287 276 267 258 247 239 232 227 226 228 232 233 222 212 208
295 296 296 296 294 293 291 291 292 294 296 296 298 303 304 300 297 297 299 300 301 302 304 304 305 305 306 308 310 310 311 312 311 309 310 311 312 313 316 320 323 325 327 329 331 333 333 333 334 334 334 333 332 331 332 332 333 335 335 334 335 337 335 331 327 326 328 327 326 323 312 295 280 267 254 243 234 227 224 226 228 232 231 219 209 206
294 296 296 295 293 291 290 292 294 294 295 297 301 304 302 298 297 297 299 302 302 302 302 302 303 305 306 308 310 310 311 312 311 310 311 312 313 314 318 321 324 325 327 330 332 333 334 334 334 334 334 333 331 330 331 331 332 335 335 333 333 336 336 334 330 328 328 327 328 329 323 308 288 266 249 238 230 226 227 229 230 232 227 214 206 203
295 296 296 293 291 290 291 293 295 294 295 299 302 303 299 297 296 296 299 304 304 301 300 301 302 305 307 309 310 311 311 312 312 311 311 312 313 314 318 321 323 325 327 330 332 333 334 334 333 333 333 332 330 330 331 331 332 335 336 334 333 334 335 335 333 330 327 327 329 331 328 318 297 268 246 235 231 231 233 234 233 231 221 209 202 200
296 296 294 291 291 292 292 294 295 295 297 301 303 301 297 295 296 297 300 304 303 299 298 301 303 305 308 309 310 310 311 312 312 310 309 310 312 313 317 320 322 324 327 329 331 333 333 334 333 333 333 331 328 329 330 331 331 335 338 336 332 332 334 335 335 332 328 325 327 330 329 322 303 274 252 243 241 241 242 240 236 226 213 203 199 198
296 295 293 292 293 293 293 293 294 295 299 302 302 299 296 296 298 298 299 302 300 297 298 301 303 306 309 309 310 310 310 310 311 310 309 310 311 314 317 319 321 323 326 328 331 332 333 334 333 332 332 330 328 328 330 330 331 334 337 336 332 332 334 335 335 335 331 325 324 327 327 320 306 286 269 259 254 251 248 243 233 218 205 200 198 196
296 296 295 295 294 294 293 293 293 297 302 303 299 296 297 298 299 298 299 300 300 298 298 301 304 307 309 309 309 310 309 309 310 310 309 310 312 314 317 319 321 324 326 329 331 332 333 334 333 333 332 330 327 327 329 330 331 334 338 338 334 331 333 334 335 336 333 326 321 320 321 316 306 293 280 269 262 258 251 239 222 208 201 199 198 196
297 296 295 295 295 294 292 292 295 301 304 300 296 297 297 297 297 297 298 299 298 298 299 303 306 308 308 308 309 309 308 308 309 309 310 311 312 315 317 319 322 324 327 329 331 332 333 334 334 333 332 330 326 326 329 330 331 334 338 340 337 333 333 334 335 334 334 330 321 314 312 310 303 293 283 274 267 260 245 224 209 202 200 200 199 197
296 294 295 296 294 291 290 292 298 302 300 296 296 296 294 294 296 297 298 297 297 298 301 305 306 307 308 308 309 308 308 308 308 308 310 311 313 315 317 320 322 325 327 329 330 331 332 333 334 333 333 330 326 325 328 329 331 334 338 341 340 337 335 333 333 333 334 333 327 315 304 301 297 289 280 272 265 249 225 207 201 202 202 201 200 197
294 295 295 293 291 290 291 295 298 298 295 294 294 293 292 293 295 296 296 296 296 298 302 304 306 307 308 308 308 308 308 308 308 308 309 311 313 315 318 320 323 325 327 329 330 330 331 333 333 333 333 330 326 324 327 329 330 334 338 340 341 341 338 333 332 331 331 334 333 322 306 300 296 285 274 265 250 225 209 203 202 203 203 201 199 197
295 295 293 292 291 291 293 296 296 295 293 292 291 291 292 293 294 295 295 294 296 298 301 303 305 306 307 308 308 308 307 307 308 308 309 311 313 316 318 321 323 326 327 328 329 329 330 332 332 332 333 331 325 322 325 328 329 332 336 338 341 344 342 335 330 329 329 332 336 330 317 307 300 284 265 246 222 206 202 203 203 203 202 200 198 196
296 296 293 291 291 292 294 296 295 292 289 289 290 291 292 292 292 293 294 294 296 298 300 303 305 306 307 308 308 307 306 306 307 308 309 311 313 316 318 321 323 326 327 328 328 328 329 331 331 332 332 331 325 321 322 327 330 331 334 337 340 344 345 338 330 327 328 328 333 336 328 314 300 281 249 223 208 202 202 204 205 204 201 197 195 194
298 296 292 291 292 293 294 294 291 287 287 288 289 290 291 291 292 293 294 295 296 298 301 304 305 306 307 307 307 306 305 305 307 308 309 311 314 316 318 321 324 325 326 327 328 327 328 330 330 330 331 331 326 320 320 326 330 331 334 337 338 342 346 343 332 325 326 325 324 332 336 326 306 273 232 212 206 206 208 209 209 207 200 194 191 191
297 293 291 292 293 292 292 291 287 286 286 287 288 290 291 291 292 293 294 295 297 299 302 304 305 306 307 306 305 305 305 306 307 308 309 312 314 316 318 321 324 325 326 326 327 327 327 328 329 329 330 330 327 321 319 324 328 330 333 336 337 339 345 346 337 325 323 324 318 316 324 326 312 282 236 216 213 214 215 215 213 208 200 193 188 188
294 292 292 292 290 289 291 289 285 285 287 288 289 290 290 291 292 293 294 295 298 301 303 304 305 306 305 305 305 305 305 306 307 308 310 312 314 316 319 322 323 325 325 326 326 326 326 327 328 329 329 329 328 322 318 321 326 328 331 335 337 337 342 347 343 328 319 322 320 310 305 304 294 277 257 239 230 227 223 219 214 208 202 195 189 187
293 290 288 287 287 289 289 285 283 285 288 289 289 290 290 291 291 292 294 297 300 302 303 304 304 304 304 304 305 305 305 306 308 310 311 313 315 317 319 322 323 324 325 325 325 325 325 326 327 327 327 328 328 323 317 318 322 326 330 335 337 337 339 345 346 335 320 317 320 314 304 295 284 272 262 246 230 228 228 223 216 209 204 198 191 187
289 286 284 285 288 288 286 283 282 285 288 289 290 290 290 291 292 294 297 299 300 301 303 303 303 303 304 305 305 305 306 307 309 311 312 313 316 318 320 322 323 323 324 324 325 325 325 325 326 326 326 327 326 322 316 314 318 324 329 335 338 337 337 342 346 343 329 316 316 317 309 297 283 272 260 236 216 220 230 231 223 212 205 199 192 187
Height
5807 5805 5804 5802 5800 5798 5796 5795 5792 5790 5788 5786 5784 5781 5780 5777 5775 5770 5766 5764 5762 5758 5755 5754 5752 5748 5744 5740 5737 5735 5731 5729 5725 5722 5718 5712 5708 5705 5700 5696 5693 5689 5685 5681 5676 5672 5668 5664 5661 5657 5652 5649 5644 5640 5635 5630 5625 5621 5615 5610 5605 5599 5590 5578 5570 5566 5564 5559 5554 5550 5550 5553 5558 5562 5564 5568 5571 5575 5579 5581 5584 5589 5594 5599 5603 5606
5804 5802 5800 5798 5796 5794 5792 5791 5789 5787 5785 5783 5781 5778 5776 5774 5771 5767 5762 5759 5757 5753 5749 5748 5747 5744 5739 5736 5733 5730 5727 5724 5720 5715 5711 5706 5702 5698 5695 5691 5686 5681 5676 5672 5667 5663 5659 5654 5650 5647 5642 5638 5635 5631 5626 5620 5614 5608 5601 5594 5588 5582 5573 5563 5553 5546 5543 5540 5536 5533 5531 5533 5539 5545 5548 5551 5556 5560 5564 5568 5571 5574 5580 5585 5591 5596
5802 5799 5797 5795 5793 5791 5789 5787 5785 5783 5781 5779 5777 5774 5771 5769 5767 5763 5758 5755 5752 5748 5743 5741 5742 5738 5733 5731 5727 5725 5721 5716 5713 5709 5704 5699 5696 5692 5688 5684 5679 5673 5667 5662 5658 5654 5649 5644 5640 5635 5632 5627 5623 5620 5615 5609 5603 5596 5588 5578 5569 5561 5552 5545 5538 5529 5522 5520 5518 5516 5514 5516 5520 5527 5532 5536 5540 5545 5549 5554 5558 5562 5567 5574 5580 5584
5798 5795 5794 5792 5789 5787 5785 5783 5781 5779 5777 5775 5773 5771 5766 5764 5762 5757 5753 5750 5745 5742 5737 5735 5735 5730 5726 5725 5721 5718 5715 5709 5706 5701 5696 5692 5688 5685 5681 5676 5671 5665 5659 5655 5651 5646 5640 5635 5629 5623 5618 5614 5609 5604 5600 5595 5589 5583 5575 5565 5555 5544 5534 5527 5522 5513 5506 5504 5503 5500 5498 5499 5503 5510 5517 5521 5525 5530 5534 5541 5547 5552 5556 5563 5569 5573
5794 5791 5789 5788 5785 5783 5781 5779 5777 5775 5772 5769 5768 5766 5761 5757 5756 5752 5748 5745 5740 5735 5730 5729 5729 5724 5720 5717 5715 5712 5707 5702 5699 5693 5689 5686 5682 5678 5674 5669 5664 5658 5654 5650 5645 5640 5635 5629 5622 5615 5607 5602 5598 5592 5586 5581 5574 5568 5562 5553 5543 5531 5519 5511 5507 5500 5494 5492 5490 5487 5484 5485 5489 5494 5501 5506 5511 5516 5521 5527 5535 5541 5546 5552 5558 5562
5790 5787 5786 5783 5781 5779 5777 5774 5772 5770 5767 5764 5762 5760 5755 5752 5749 5746 5742 5739 5735 5729 5723 5722 5721 5718 5714 5708 5705 5706 5700 5695 5693 5687 5683 5679 5675 5672 5667 5662 5658 5652 5648 5644 5638 5632 5628 5623 5617 5611 5604 5597 5593 5587 5579 5572 5564 5556 5547 5538 5529 5518 5508 5498 5493 5489 5485 5482 5480 5476 5473 5472 5475 5480 5486 5491 5497 5503 5508 5514 5522 5530 5536 5541 5547 5551
5785 5782 5780 5778 5776 5774 5771 5769 5767 5765 5761 5758 5756 5753 5749 5746 5743 5739 5736 5732 5730 5725 5719 5717 5712 5710 5710 5702 5697 5697 5694 5691 5686 5680 5676 5673 5669 5666 5661 5656 5650 5645 5640 5637 5632 5626 5620 5614 5608 5603 5597 5590 5585 5579 5572 5563 5556 5547 5537 5527 5516 5506 5498 5490 5484 5481 5477 5474 5472 5468 5464 5462 5462 5467 5472 5478 5484 5490 5495 5501 5510 5518 5525 5531 5538 5542
5779 5776 5774 5772 5770 5767 5765 5763 5761 5759 5756 5752 5750 5746 5743 5740 5736 5733 5729 5726 5723 5719 5716 5713 5707 5702 5702 5699 5694 5691 5687 5685 5680 5673 5669 5666 5664 5660 5654 5648 5642 5636 5632 5629 5625 5619 5613 5606 5600 5594 5587 5581 5574 5567 5560 5551 5542 5534 5524 5516 5506 5497 5489 5483 5478 5474 5469 5466 5464 5461 5457 5454 5453 5455 5459 5465 5471 5477 5483 5489 5498 5506 5513 5520 5528 5533
5773 5771 5769 5766 5764 5761 5759 5757 5755 5753 5749 5747 5744 5740 5737 5734 5731 5727 5723 5721 5717 5712 5710 5708 5702 5697 5695 5692 5688 5687 5685 5679 5672 5667 5662 5659 5656 5652 5646 5641 5635 5628 5624 5621 5616 5609 5603 5597 5592 5586 5579 5571 5563 5555 5548 5538 5528 5519 5510 5502 5496 5490 5483 5477 5473 5469 5465 5460 5456 5454 5450 5448 5446 5446 5448 5453 5459 5466 5472 5478 5485 5494 5501 5508 5516 5522
5768 5766 5763 5761 5758 5755 5754 5752 5749 5747 5743 5741 5738 5735 5732 5729 5726 5722 5717 5715 5712 5707 5705 5703 5697 5691 5690 5689 5681 5675 5678 5674 5666 5660 5657 5654 5649 5644 5639 5632 5626 5621 5616 5613 5608 5601 5595 5589 5583 5578 5572 5563 5553 5544 5535 5526 5516 5506 5499 5492 5487 5483 5477 5471 5467 5464 5460 5456 5451 5448 5444 5441 5439 5439 5439 5442 5447 5454 5460 5467 5473 5482 5490 5497 5504 5511
5764 5761 5759 5756 5753 5750 5748 5746 5744 5741 5738 5735 5732 5729 5727 5723 5720 5716 5712 5710 5706 5702 5700 5697 5694 5685 5681 5684 5679 5670 5667 5663 5657 5653 5649 5646 5641 5635 5629 5623 5616 5612 5607 5603 5598 5592 5586 5581 5576 5569 5563 5555 5545 5536 5526 5516 5506 5496 5489 5483 5479 5476 5471 5465 5462 5458 5455 5451 5447 5443 5439 5436 5434 5432 5432 5434 5437 5443 5449 5456 5463 5470 5479 5487 5493 5500
5759 5756 5754 5751 5748 5745 5742 5740 5738 5735 5732 5729 5726 5723 5721 5718 5715 5710 5706 5703 5699 5697 5693 5689 5688 5681 5674 5673 5671 5669 5665 5655 5648 5644 5640 5638 5633 5627 5620 5613 5608 5602 5598 5593 5587 5581 5576 5571 5567 5561 5555 5548 5538 5529 5519 5508 5497 5487 5480 5475 5470 5468 5464 5459 5456 5453 5449 5446 5443 5439 5435 5431 5428 5427 5426 5427 5429 5433 5439 5445 5452 5460 5469 5477 5484 5489
5751 5750 5749 5747 5743 5740 5737 5734 5732 5729 5726 5723 5720 5717 5712 5710 5709 5704 5700 5695 5692 5689 5686 5683 5679 5675 5671 5666 5661 5661 5658 5650 5643 5637 5634 5630 5624 5619 5613 5606 5601 5595 5590 5586 5579 5573 5568 5562 5556 5551 5545 5538 5530 5520 5510 5499 5487 5476 5469 5466 5462 5459 5457 5453 5450 5447 5443 5440 5437 5434 5430 5426 5423 5421 5421 5421 5422 5424 5429 5435 5441 5450 5458 5467 5474 5480
5744 5743 5743 5741 5738 5735 5732 5728 5725 5723 5720 5716 5713 5710 5705 5702 5700 5697 5695 5690 5687 5683 5677 5676 5673 5668 5666 5661 5656 5654 5647 5640 5635 5629 5626 5623 5615 5610 5605 5597 5592 5588 5583 5577 5570 5565 5559 5552 5546 5539 5533 5526 5519 5511 5500 5488 5478 5467 5460 5457 5454 5452 5449 5445 5443 5441 5437 5434 5432 5429 5425 5421 5418 5416 5415 5415 5416 5417 5420 5425 5431 5439 5448 5456 5464 5470
5738 5737 5737 5734 5731 5729 5726 5722 5718 5715 5713 5710 5707 5703 5699 5697 5691 5688 5687 5683 5682 5679 5672 5669 5666 5661 5660 5654 5649 5647 5640 5632 5627 5623 5620 5615 5608 5601 5595 5589 5583 5579 5575 5568 5561 5556 5549 5543 5536 5529 5522 5514 5506 5498 5488 5478 5468 5460 5454 5449 5446 5444 5441 5438 5435 5434 5432 5428 5426 5423 5420 5416 5413 5411 5409 5409 5409 5410 5412 5415 5421 5429 5438 5446 5454 5461
5732 5731 5730 5728 5725 5722 5719 5717 5713 5709 5706 5704 5701 5696 5693 5691 5685 5680 5679 5676 5673 5671 5667 5666 5661 5655 5654 5650 5644 5638 5633 5626 5620 5617 5614 5607 5601 5594 5586 5581 5575 5571 5566 5558 5552 5547 5540 5534 5527 5518 5509 5500 5492 5485 5477 5470 5460 5452 5447 5443 5441 5437 5434 5431 5428 5426 5425 5423 5420 5417 5414 5411 5408 5406 5404 5403 5403 5403 5404 5407 5411 5420 5429 5436 5443 5451
5726 5724 5722 5720 5718 5716 5713 5710 5708 5704 5700 5697 5694 5689 5686 5684 5678 5672 5671 5670 5666 5662 5659 5659 5656 5651 5647 5643 5637 5631 5624 5618 5613 5610 5606 5599 5592 5586 5579 5573 5569 5564 5558 5550 5543 5536 5530 5523 5516 5509 5501 5490 5481 5474 5467 5461 5454 5446 5440 5436 5434 5432 5428 5424 5421 5419 5417 5416 5414 5411 5408 5406 5403 5400 5398 5397 5397 5396 5397 5399 5403 5411 5420 5427 5433 5442
5721 5718 5716 5713 5710 5710 5707 5703 5701 5698 5693 5689 5686 5682 5679 5676 5673 5666 5662 5661 5658 5653 5652 5651 5647 5644 5642 5635 5628 5623 5617 5611 5608 5605 5600 5594 5586 5580 5575 5568 5564 5559 5552 5545 5539 5532 5525 5518 5511 5505 5498 5488 5477 5468 5459 5452 5447 5441 5434 5430 5426 5424 5421 5417 5414 5411 5409 5408 5407 5404 5402 5399 5396 5394 5393 5391 5391 5390 5390 5391 5396 5403 5411 5418 5425 5433
5715 5710 5709 5708 5703 5702 5700 5696 5693 5691 5687 5682 5678 5675 5672 5669 5667 5662 5656 5653 5650 5644 5642 5645 5642 5637 5637 5631 5619 5613 5608 5602 5601 5600 5595 5589 5581 5575 5570 5565 5561 5555 5549 5543 5537 5531 5524 5517 5510 5503 5495 5486 5474 5463 5454 5446 5441 5435 5429 5424 5420 5416 5412 5409 5406 5404 5401 5400 5398 5397 5395 5392 5389 5388 5386 5385 5384 5384 5383 5384 5388 5394 5402 5410 5417 5425
5709 5702 5700 5701 5697 5694 5692 5688 5686 5683 5680 5676 5671 5667 5665 5662 5658 5655 5650 5646 5643 5637 5632 5634 5636 5632 5630 5628 5617 5606 5602 5596 5592 5592 5588 5582 5575 5569 5564 5560 5555 5550 5544 5538 5532 5525 5518 5511 5504 5496 5486 5477 5467 5456 5446 5439 5434 5429 5423 5418 5414 5409 5404 5400 5396 5395 5394 5392 5389 5388 5387 5385 5382 5380 5379 5378 5377 5377 5377 5377 5379 5386 5394 5401 5409 5416
5703 5697 5692 5692 5690 5686 5683 5681 5679 5675 5672 5670 5666 5661 5658 5657 5652 5647 5644 5641 5634 5630 5626 5624 5625 5626 5623 5619 5612 5601 5595 5591 5586 5583 5580 5575 5568 5562 5557 5553 5548 5542 5536 5530 5524 5516 5510 5502 5494 5487 5478 5468 5458 5447 5439 5432 5427 5422 5416 5411 5406 5401 5396 5392 5388 5385 5384 5383 5381 5379 5378 5377 5375 5373 5372 5371 5371 5370 5370 5370 5372 5377 5385 5392 5400 5408
5697 5691 5685 5684 5683 5679 5676 5674 5672 5668 5665 5663 5660 5656 5652 5650 5647 5640 5636 5636 5630 5623 5621 5617 5613 5619 5619 5610 5602 5595 5587 5583 5579 5575 5572 5567 5561 5555 5551 5546 5540 5534 5527 5521 5515 5508 5500 5492 5484 5476 5468 5458 5448 5438 5429 5425 5420 5414 5408 5403 5398 5393 5388 5383 5380 5377 5375 5374 5373 5371 5370 5369 5367 5365 5364 5364 5364 5364 5364 5363 5364 5369 5376 5383 5392 5400
5690 5685 5680 5678 5675 5672 5670 5668 5665 5662 5659 5656 5652 5649 5645 5642 5641 5635 5628 5627 5625 5618 5616 5611 5604 5610 5614 5602 5593 5589 5582 5575 5570 5566 5562 5558 5553 5547 5543 5539 5532 5526 5520 5513 5507 5501 5492 5484 5475 5465 5457 5449 5441 5431 5423 5418 5414 5407 5401 5395 5388 5383 5378 5374 5370 5367 5366 5364 5363 5362 5360 5360 5359 5358 5356 5356 5357 5357 5357 5356 5357 5360 5366 5375 5383 5390
5683 5679 5675 5672 5668 5665 5663 5662 5660 5656 5653 5650 5646 5641 5638 5636 5633 5630 5624 5619 5617 5614 5610 5602 5598 5604 5603 5593 5586 5581 5576 5570 5564 5558 5554 5549 5544 5539 5535 5532 5526 5519 5513 5507 5501 5494 5486 5478 5468 5458 5449 5441 5433 5425 5418 5413 5408 5401 5394 5387 5380 5374 5369 5364 5359 5355 5354 5353 5353 5352 5351 5350 5350 5350 5349 5348 5349 5349 5350 5350 5350 5352 5358 5367 5374 5381
5676 5672 5669 5666 5662 5658 5656 5655 5654 5652 5647 5643 5639 5635 5632 5630 5626 5622 5617 5611 5609 5612 5605 5591 5589 5596 5591 5581 5578 5573 5567 5565 5559 5552 5548 5541 5535 5531 5526 5522 5518 5511 5505 5499 5493 5487 5480 5472 5463 5452 5441 5432 5425 5417 5411 5406 5401 5394 5387 5379 5371 5365 5359 5353 5347 5343 5341 5340 5341 5341 5341 5340 5340 5341 5341 5340 5340 5342 5342 5343 5343 5345 5350 5358 5367 5373
5670 5666 5664 5662 5658 5653 5651 5648 5645 5646 5642 5637 5632 5628 5625 5624 5620 5615 5610 5604 5602 5603 5599 5587 5582 5586 5583 5573 5568 5563 5557 5556 5551 5545 5540 5533 5527 5522 5517 5512 5509 5503 5497 5491 5484 5478 5471 5464 5456 5446 5434 5424 5416 5408 5402 5397 5392 5387 5380 5371 5362 5354 5348 5341 5335 5331 5329 5327 5328 5330 5330 5330 5331 5331 5332 5332 5332 5333 5334 5336 5337 5338 5342 5350 5358 5365
5663 5660 5658 5656 5653 5650 5647 5642 5639 5638 5635 5630 5626 5621 5619 5617 5613 5608 5603 5601 5597 5590 5589 5587 5576 5573 5577 5572 5562 5557 5552 5549 5544 5538 5533 5527 5521 5517 5511 5505 5501 5497 5491 5484 5478 5470 5463 5457 5450 5441 5430 5419 5410 5403 5395 5388 5382 5377 5371 5363 5354 5345 5337 5330 5324 5320 5318 5316 5316 5318 5319 5320 5321 5322 5323 5323 5324 5325 5326 5328 5330 5331 5334 5341 5349 5357
5655 5654 5651 5648 5646 5645 5641 5637 5635 5632 5627 5623 5618 5614 5613 5611 5606 5600 5595 5595 5591 5580 5581 5585 5571 5561 5567 5566 5556 5551 5548 5543 5539 5533 5527 5521 5516 5512 5507 5502 5496 5491 5485 5480 5473 5465 5457 5450 5443 5433 5423 5414 5405 5399 5392 5384 5375 5368 5360 5353 5345 5337 5328 5320 5314 5310 5308 5307 5306 5306 5307 5309 5310 5312 5313 5314 5315 5316 5318 5319 5321 5323 5326 5331 5339 5348
5647 5646 5645 5641 5639 5638 5635 5630 5628 5625 5621 5617 5611 5606 5605 5603 5598 5593 5589 5587 5581 5572 5573 5576 5567 5559 5559 5556 5550 5544 5540 5535 5532 5527 5521 5514 5509 5506 5502 5496 5491 5484 5478 5472 5466 5458 5450 5442 5434 5424 5415 5406 5399 5392 5386 5378 5370 5362 5354 5345 5337 5329 5320 5313 5307 5301 5299 5299 5298 5297 5297 5297 5298 5300 5302 5303 5305 5307 5308 5310 5313 5315 5318 5322 5329 5338
5641 5639 5637 5634 5632 5631 5628 5624 5622 5618 5614 5610 5606 5602 5599 5595 5589 5584 5581 5580 5573 5567 5566 5563 5558 5558 5555 5548 5544 5540 5533 5528 5523 5519 5514 5508 5502 5499 5496 5491 5485 5478 5470 5465 5459 5451 5442 5435 5427 5418 5408 5400 5393 5386 5379 5372 5363 5354 5347 5339 5331 5323 5315 5308 5302 5296 5293 5292 5290 5289 5288 5287 5287 5289 5291 5293 5295 5297 5299 5301 5304 5307 5310 5314 5321 5331
5633 5631 5630 5626 5624 5623 5621 5617 5615 5612 5606 5603 5601 5598 5595 5591 5584 5576 5573 5570 5565 5562 5561 5555 5549 5551 5550 5543 5538 5534 5528 5523 5517 5512 5508 5502 5497 5493 5488 5484 5478 5471 5463 5457 5452 5444 5436 5429 5421 5412 5403 5394 5387 5380 5373 5365 5357 5348 5340 5332 5325 5318 5311 5304 5298 5293 5288 5285 5283 5280 5278 5277 5278 5278 5280 5283 5285 5287 5290 5292 5295 5299 5303 5307 5314 5324
5625 5622 5622 5618 5613 5615 5615 5609 5607 5605 5598 5595 5598 5595 5589 5585 5580 5574 5568 5562 5556 5554 5554 5549 5544 5543 5541 5537 5533 5528 5522 5516 5510 5505 5500 5496 5491 5486 5481 5475 5469 5464 5458 5450 5444 5437 5429 5422 5414 5405 5396 5387 5380 5374 5366 5359 5351 5343 5335 5328 5320 5313 5306 5299 5293 5288 5283 5279 5275 5272 5270 5268 5268 5268 5270 5272 5275 5277 5280 5283 5286 5290 5294 5299 5306 5313
5618 5614 5614 5610 5604 5605 5606 5601 5599 5596 5588 5589 5595 5592 5584 5580 5575 5569 5565 5558 5552 5547 5544 5541 5539 5537 5533 5529 5526 5522 5515 5508 5503 5497 5492 5487 5484 5479 5474 5468 5462 5457 5452 5444 5437 5429 5421 5413 5406 5397 5388 5379 5372 5367 5360 5352 5345 5337 5329 5322 5315 5308 5301 5295 5289 5283 5278 5273 5268 5264 5261 5259 5258 5259 5261 5263 5265 5267 5270 5274 5279 5282 5286 5291 5297 5303
5611 5606 5604 5602 5596 5594 5596 5594 5589 5585 5582 5585 5588 5585 5579 5576 5570 5564 5560 5554 5549 5543 5538 5535 5534 5530 5527 5523 5520 5516 5511 5504 5497 5491 5486 5480 5475 5471 5469 5465 5458 5452 5445 5439 5432 5424 5415 5407 5399 5392 5383 5375 5368 5362 5356 5348 5341 5332 5323 5317 5310 5303 5295 5289 5284 5277 5272 5267 5261 5256 5252 5250 5249 5250 5252 5254 5256 5258 5262 5267 5271 5275 5279 5283 5288 5296
5602 5599 5595 5593 5588 5584 5587 5586 5578 5576 5579 5579 5578 5578 5575 5569 5563 5559 5556 5551 5544 5538 5533 5531 5529 5525 5522 5519 5515 5511 5507 5500 5493 5487 5483 5477 5470 5465 5462 5460 5454 5447 5440 5434 5428 5419 5411 5402 5394 5387 5380 5372 5365 5360 5353 5346 5339 5331 5321 5313 5306 5299 5291 5285 5279 5273 5266 5260 5254 5249 5244 5242 5242 5243 5245 5246 5248 5251 5255 5260 5265 5269 5272 5275 5282 5291
5593 5591 5588 5585 5581 5577 5577 5577 5570 5568 5572 5572 5569 5570 5568 5561 5554 5552 5551 5548 5541 5534 5529 5524 5522 5520 5516 5513 5511 5506 5502 5497 5491 5483 5478 5475 5468 5460 5455 5452 5448 5442 5435 5428 5422 5413 5404 5396 5387 5380 5373 5367 5361 5355 5348 5341 5335 5328 5319 5310 5303 5296 5288 5282 5276 5269 5263 5256 5250 5244 5240 5237 5237 5238 5239 5241 5243 5246 5251 5255 5260 5263 5265 5270 5277 5286
5585 5583 5580 5576 5574 5571 5568 5567 5565 5561 5563 5566 5565 5561 5558 5552 5548 5545 5544 5542 5537 5531 5526 5520 5516 5514 5511 5507 5504 5500 5496 5493 5487 5478 5471 5468 5463 5456 5450 5444 5439 5435 5429 5422 5416 5407 5398 5390 5382 5375 5369 5363 5357 5351 5344 5337 5331 5324 5316 5308 5301 5293 5286 5279 5273 5266 5260 5254 5247 5242 5238 5235 5235 5236 5237 5238 5241 5244 5248 5251 5255 5258 5260 5266 5273 5281
5578 5575 5572 5567 5566 5564 5560 5558 5558 5554 5553 5557 5559 5555 5548 5544 5541 5537 5536 5537 5533 5525 5520 5516 5512 5509 5505 5501 5496 5492 5489 5487 5483 5475 5467 5463 5458 5452 5446 5440 5434 5429 5424 5417 5412 5406 5398 5389 5381 5373 5367 5362 5356 5350 5342 5334 5327 5321 5313 5305 5298 5291 5284 5277 5270 5264 5258 5252 5247 5242 5238 5236 5235 5236 5237 5238 5241 5243 5246 5249 5251 5253 5256 5262 5270 5278
5570 5567 5564 5560 5559 5558 5553 5550 5551 5548 5545 5547 5550 5548 5541 5537 5535 5530 5528 5531 5529 5520 5514 5512 5508 5504 5500 5495 5490 5485 5481 5479 5478 5473 5466 5461 5456 5449 5444 5439 5433 5428 5422 5416 5410 5404 5397 5388 5379 5371 5364 5359 5354 5348 5341 5332 5324 5317 5311 5304 5296 5289 5282 5276 5269 5262 5256 5251 5247 5242 5239 5238 5237 5237 5238 5239 5241 5242 5244 5246 5247 5249 5253 5260 5268 5276
5563 5559 5556 5554 5553 5551 5546 5543 5544 5543 5540 5539 5540 5538 5533 5530 5529 5523 5519 5521 5521 5515 5511 5508 5504 5500 5496 5490 5485 5481 5475 5471 5470 5468 5463 5458 5454 5447 5440 5434 5429 5425 5420 5415 5409 5403 5395 5386 5377 5368 5361 5355 5351 5346 5339 5331 5323 5315 5308 5301 5293 5286 5280 5275 5268 5261 5255 5250 5246 5243 5241 5239 5238 5238 5238 5239 5240 5241 5242 5243 5244 5246 5251 5258 5265 5272
5555 5552 5549 5548 5546 5543 5539 5536 5537 5539 5537 5531 5528 5528 5526 5523 5521 5517 5512 5512 5510 5508 5506 5503 5499 5496 5491 5485 5480 5475 5470 5465 5462 5459 5455 5451 5448 5444 5437 5431 5424 5418 5412 5407 5402 5397 5392 5384 5375 5365 5356 5350 5345 5341 5336 5329 5322 5314 5307 5299 5292 5284 5278 5273 5268 5261 5255 5250 5246 5243 5241 5240 5239 5238 5238 5238 5238 5238 5239 5240 5241 5245 5251 5258 5265 5272
5548 5544 5542 5542 5539 5536 5533 5529 5529 5533 5533 5525 5518 5518 5518 5515 5512 5509 5507 5505 5502 5499 5498 5496 5493 5489 5484 5479 5475 5470 5465 5461 5456 5452 5448 5444 5440 5437 5432 5427 5421 5415 5408 5401 5395 5389 5384 5378 5371 5362 5354 5347 5341 5336 5332 5326 5319 5312 5305 5298 5290 5283 5276 5271 5267 5262 5255 5249 5245 5243 5241 5239 5238 5237 5237 5236 5236 5236 5237 5239 5242 5247 5253 5259 5266 5272
5542 5537 5535 5536 5533 5529 5526 5524 5523 5524 5523 5518 5514 5511 5509 5506 5504 5502 5500 5497 5495 5492 5489 5487 5485 5481 5477 5473 5468 5463 5460 5456 5451 5446 5442 5438 5434 5430 5425 5421 5416 5410 5404 5398 5392 5386 5380 5374 5367 5358 5350 5343 5339 5334 5329 5323 5317 5310 5303 5296 5289 5282 5275 5270 5266 5261 5256 5250 5245 5242 5240 5238 5237 5237 5236 5235 5235 5236 5237 5240 5244 5249 5254 5260 5265 5271
5536 5532 5528 5528 5526 5521 5519 5519 5518 5515 5511 5510 5509 5505 5500 5498 5497 5495 5492 5490 5488 5486 5483 5479 5477 5474 5470 5465 5461 5457 5453 5449 5445 5441 5437 5432 5428 5424 5419 5414 5409 5404 5399 5393 5387 5382 5376 5370 5365 5357 5348 5340 5335 5330 5326 5320 5315 5308 5301 5294 5287 5281 5275 5270 5265 5261 5257 5251 5246 5242 5239 5238 5237 5236 5236 5235 5235 5237 5239 5242 5247 5251 5256 5261 5265 5271
5528 5526 5521 5519 5518 5515 5513 5513 5512 5508 5503 5501 5500 5498 5495 5491 5490 5488 5485 5482 5481 5480 5478 5474 5470 5467 5463 5459 5455 5451 5447 5444 5440 5435 5431 5428 5423 5419 5414 5409 5403 5398 5393 5388 5382 5377 5371 5366 5360 5354 5347 5339 5332 5328 5323 5318 5313 5307 5300 5293 5286 5279 5273 5269 5265 5261 5257 5252 5247 5243 5240 5238 5237 5236 5236 5236 5237 5238 5241 5244 5249 5253 5258 5262 5267 5273
5520 5517 5513 5511 5509 5508 5508 5507 5504 5501 5496 5493 5491 5490 5488 5485 5482 5481 5478 5476 5474 5473 5470 5468 5464 5461 5457 5453 5450 5445 5441 5439 5435 5430 5426 5423 5419 5414 5410 5404 5399 5393 5388 5383 5377 5372 5367 5362 5356 5350 5344 5338 5331 5326 5321 5316 5310 5305 5298 5292 5285 5279 5272 5267 5264 5260 5257 5253 5249 5245 5241 5239 5238 5237 5238 5238 5239 5241 5243 5246 5249 5253 5257 5262 5268 5274
5512 5508 5505 5504 5502 5500 5500 5499 5497 5492 5489 5486 5483 5482 5481 5478 5475 5473 5471 5469 5468 5465 5463 5460 5456 5453 5450 5447 5443 5440 5436 5433 5430 5426 5421 5418 5414 5410 5405 5400 5395 5389 5383 5378 5373 5367 5362 5357 5352 5346 5341 5335 5330 5324 5319 5314 5308 5302 5296 5290 5285 5279 5272 5266 5262 5260 5256 5253 5250 5247 5244 5242 5240 5240 5239 5240 5241 5243 5245 5248 5250 5253 5257 5262 5267 5273
5504 5500 5497 5496 5495 5493 5491 5490 5487 5484 5482 5479 5475 5474 5473 5471 5468 5466 5464 5462 5460 5458 5455 5452 5449 5446 5444 5441 5437 5434 5430 5427 5424 5421 5416 5413 5409 5405 5400 5396 5391 5385 5379 5374 5368 5362 5357 5352 5347 5341 5336 5331 5326 5321 5317 5312 5306 5301 5295 5289 5283 5278 5272 5266 5261 5258 5255 5253 5251 5248 5246 5244 5243 5242 5241 5241 5243 5245 5247 5249 5251 5254 5257 5262 5267 5272
5495 5491 5490 5489 5487 5486 5485 5481 5476 5475 5475 5474 5469 5467 5466 5464 5461 5459 5457 5455 5453 5450 5447 5445 5442 5439 5436 5434 5431 5428 5424 5421 5418 5414 5411 5407 5404 5399 5395 5391 5386 5380 5375 5370 5364 5357 5351 5346 5342 5336 5331 5326 5322 5317 5313 5309 5304 5299 5294 5288 5282 5277 5272 5266 5261 5257 5254 5252 5250 5248 5247 5245 5244 5243 5242 5243 5243 5245 5247 5249 5251 5254 5257 5261 5266 5271
5487 5483 5482 5480 5478 5478 5478 5473 5467 5465 5467 5467 5464 5460 5459 5457 5455 5453 5450 5448 5446 5443 5440 5438 5435 5432 5430 5427 5425 5422 5418 5415 5412 5408 5404 5401 5398 5394 5389 5385 5381 5375 5370 5365 5360 5353 5347 5342 5337 5331 5326 5322 5318 5313 5310 5306 5303 5298 5293 5287 5281 5275 5270 5265 5260 5256 5253 5251 5249 5247 5246 5245 5244 5243 5243 5243 5244 5246 5248 5250 5252 5254 5257 5261 5265 5270
5479 5474 5472 5472 5471 5470 5468 5464 5460 5459 5459 5459 5456 5453 5451 5449 5447 5445 5443 5441 5438 5436 5434 5431 5428 5426 5423 5421 5418 5416 5412 5409 5406 5402 5398 5395 5391 5387 5383 5379 5375 5370 5365 5360 5355 5350 5343 5338 5332 5327 5322 5318 5314 5310 5307 5303 5300 5296 5291 5286 5280 5274 5269 5264 5259 5255 5251 5249 5247 5246 5245 5244 5243 5243 5243 5243 5245 5247 5249 5250 5252 5254 5257 5259 5263 5268